Location: Pinhey's Point
(45.4411°N, 75.9539°W)
Time: 02:34:47
(UTC-04:00)

Iridium 65 - Visible Passes

Search period start: 02 April 2015 00:00
Search period end: 12 April 2015 00:00
Orbit: 776 x 779 km, 86.4° (Epoch: 01 April)

Date Brightness Start Highest point End Pass type
(mag) Time Alt. Az. Time Alt. Az. Time Alt. Az.
02 Apr 7.8 01:33:09 20° NNE 01:33:09 20° NNE 01:34:52 10° NNE visible
02 Apr 7.7 03:13:37 16° NW 03:13:37 16° NW 03:14:58 10° NNW visible
03 Apr 8.0 00:59:38 16° NE 00:59:38 16° NE 01:00:52 10° NNE visible
03 Apr 7.6 02:40:06 21° NNW 02:40:06 21° NNW 02:41:58 10° N visible
04 Apr 8.2 00:26:07 11° NE 00:26:07 11° NE 00:26:20 10° NE visible
04 Apr 7.5 02:06:34 24° N 02:06:34 24° N 02:08:39 10° N visible
05 Apr 7.6 01:33:02 24° NNE 01:33:02 24° NNE 01:35:05 10° N visible
05 Apr 7.9 03:13:30 13° NW 03:13:30 13° NW 03:14:27 10° NNW visible
06 Apr 7.8 00:59:30 20° NNE 00:59:30 20° NNE 01:01:16 10° NNE visible
06 Apr 7.6 02:39:58 19° NNW 02:39:58 19° NNW 02:41:46 10° NNW visible
07 Apr 8.0 00:25:58 15° NE 00:25:58 15° NE 00:27:06 10° NNE visible
07 Apr 7.4 02:06:25 24° NNW 02:06:25 24° NNW 02:08:38 10° N visible
08 Apr 7.4 01:32:53 27° N 01:32:53 27° N 01:35:12 10° N visible
08 Apr 8.0 03:13:20 10° NW 03:13:20 10° NW 03:13:23 10° NW visible
09 Apr 7.5 00:59:19 25° NNE 00:59:19 25° NNE 01:01:32 10° NNE visible
09 Apr 7.7 02:39:47 16° NW 02:39:47 16° NW 02:41:25 10° NNW visible
10 Apr 7.7 00:25:46 19° NE 00:25:46 19° NE 00:27:36 10° NNE visible
10 Apr 7.5 02:06:13 23° NNW 02:06:13 23° NNW 02:08:30 10° NNW visible
10 Apr 7.9 23:52:12 13° NE 23:52:12 13° NE 23:53:12 10° NE visible
11 Apr 7.2 01:32:39 29° NNW 01:32:39 29° NNW 01:35:14 10° N visible
